#timestamp,LO_Frequency,Hit,StdDev 
1456156815.3,286047007.9,Y
1456156835.2,286047005.1,P
1456156855.9,286047003.2,N
1456156875.7,286047004.2,P
1456156895.6,286047001.9,N
1456156915.4,286047000.8,N
1456156935.2,286046999.8,N
1456156955.0,286047003.7,N
1456156956.0,286047003.7,N
1456156975.8,286047001.6,N
1456156995.6,286047007.1,Y
1456157015.5,286047002.6,P
1456157035.3,286047000.6,P
1456157055.1,286046999.7,N
1456157075.8,286046999.3,N
1456157095.7,286047001.1,N
1456157115.5,286047000.2,N
1456157135.3,286047002.4,N
1456157155.2,286047001.8,N
1456157175.9,286047004.1,Y
1456157195.7,286047003.1,P
1456157215.6,286047003.4,P
1456157235.4,286047003.9,P
1456157255.2,286047002.7,N
1456157275.1,286047006.0,Y
1456157276.0,286047006.0,P
1456157295.8,286046999.8,N
1456157315.6,286046999.1,N
1456157335.5,286046998.7,N
1456157355.3,286047000.0,N
1456157375.1,286046998.6,N
1456157395.9,286046997.9,N
1456157415.7,286046993.7,N
1456157435.5,286046996.4,N
1456157455.4,286046992.1,N
1456157475.2,286046991.6,N
1456157495.0,286046992.9,N
1456157495.9,286046992.9,N
1456157515.8,286046990.7,N
1456157535.6,286046991.1,N
1456157555.4,286046988.7,N
1456157575.2,286046989.0,N
1456157595.1,286046991.3,N
1456157596.0,286046991.3,N
1456157615.8,286046987.1,N
1456157635.6,286046989.8,N
1456157655.5,286046988.0,N
1456157675.3,286046990.8,N
1456157695.1,286046990.7,N
1456157715.9,286046991.5,N
1456157735.7,286046990.7,N
1456157755.5,286046990.6,N
1456157775.4,286046991.0,N
1456157795.2,286046992.5,N
1456157815.0,286046992.3,N
1456157815.9,286046992.3,N
1456157835.8,286046994.7,N
1456157855.6,286046996.0,N
1456157875.4,286046994.1,N
1456157895.2,286046991.9,N
1456157915.1,286046991.8,Y
1456157916.0,286046991.8,P
1456157935.8,286047003.7,P
1456157955.7,286046999.0,N
1456157975.5,286046997.0,N
1456157995.3,286046996.6,N
1456158015.1,286046997.4,N
1456158035.9,286046995.3,N
1456158055.7,286046998.0,N
1456158075.5,286046995.1,N
1456158095.4,286047001.1,N
1456158115.2,286046998.3,N
1456158135.0,286046997.7,N
1456158135.9,286046997.7,N
1456158155.8,286046998.8,N
1456158175.6,286046996.8,N
1456158195.4,286046998.0,N
1456158215.3,286046994.9,N
1456158235.1,286046997.8,N
1456158236.0,286046997.8,N
1456158255.8,286046995.5,N
1456158275.7,286046994.3,N
1456158295.5,286046996.0,N
1456158315.3,286046994.0,N
1456158335.1,286046995.7,N
1456158355.9,286046995.4,N
1456158375.7,286046998.8,N
1456158395.5,286046995.7,N
1456158415.4,286046995.9,N
1456158435.2,286046995.7,N
1456158455.0,286046999.3,N
1456158455.9,286046999.3,N
1456158475.8,286046998.9,N
1456158495.6,286046999.4,N
1456158515.4,286046997.1,N
1456158535.3,286046999.3,N
1456158555.1,286046997.3,N
1456158556.0,286046997.3,N
1456158575.8,286046997.8,N
1456158595.7,286046995.6,N
1456158615.5,286046996.6,N
1456158635.3,286046997.4,N
1456158655.1,286046997.4,N
1456158675.9,286046995.9,N
1456158695.7,286046991.8,Y
1456158715.5,286046996.6,P
1456158735.4,286046997.0,P
1456158755.2,286046997.2,P
1456158775.1,286046996.5,Y
1456158776.0,286046996.5,P
1456158795.8,286047002.7,P
1456158815.6,286046999.7,N
1456158835.4,286047002.7,N
1456158855.3,286047003.2,N
1456158875.1,286047001.6,N
1456158895.8,286047002.4,N
1456158915.7,286047000.5,N
1456158935.5,286047002.4,N
1456158955.3,286047003.9,N
1456158975.2,286046999.8,N
1456158995.9,286047001.0,N
1456159015.7,286046999.8,N
1456159035.6,286047000.2,N
1456159055.4,286047002.6,N
1456159075.2,286047002.6,N
1456159095.0,286047001.5,N
1456159096.0,286047001.5,N
1456159115.8,286047001.9,N
1456159135.6,286047004.1,N
1456159155.4,286047000.0,N
1456159175.3,286047000.9,N
1456159195.1,286047000.9,N
1456159215.8,286047003.5,N
1456159235.7,286047003.0,N
1456159255.5,286047001.3,N
1456159275.3,286047005.4,N
1456159295.2,286047002.9,N
1456159315.9,286047001.6,N
1456159335.7,286047005.3,N
1456159355.6,286047004.1,N
1456159375.4,286047003.1,N
1456159395.2,286047005.6,Y
1456159415.1,286047003.9,P
1456159416.0,286047003.9,P
1456159435.8,286047003.1,P
1456159455.6,286047002.0,N
1456159475.5,286047000.5,N
1456159495.3,286046998.9,N
1456159515.1,286046998.1,N
1456159535.8,286046998.7,N
1456159555.7,286046993.3,Y
1456159575.5,286046993.6,P
1456159595.3,286046991.3,N
1456159615.2,286046991.2,N
1456159635.0,286046990.9,N
1456159635.9,286046990.9,N
1456159655.7,286046993.4,N
1456159675.6,286046999.2,N
1456159695.4,286046998.4,N
1456159715.2,286047000.3,N
1456159735.1,286046998.9,N
1456159736.0,286046998.9,N
1456159755.8,286046998.3,N
1456159775.6,286046998.6,N
1456159795.5,286047004.0,N
1456159815.3,286047001.5,N
1456159835.1,286047002.8,N
1456159855.9,286046998.5,N
1456159875.7,286047000.4,N
1456159895.5,286047002.7,N
1456159915.3,286047002.0,N
1456159935.2,286047000.1,N
1456159955.0,286047000.9,N
1456159955.9,286047000.9,N
1456159975.7,286046998.9,N
1456159995.6,286046998.5,N
1456160015.4,286046999.1,N
1456160035.2,286047000.9,N
1456160055.1,286047002.5,N
1456160056.0,286047002.5,N
1456160075.8,286046999.0,N
1456160095.6,286046995.3,N
1456160115.5,286046995.1,N
1456160135.3,286046995.3,N
1456160155.1,286046995.4,N
1456160175.9,286046995.1,N
1456160195.7,286046995.6,N
1456160215.5,286046996.9,N
1456160235.3,286046999.6,N
1456160255.2,286046995.0,N
1456160275.0,286046995.8,N
1456160275.9,286046995.8,N
1456160295.7,286046997.1,N
1456160315.6,286046996.7,N
1456160335.4,286046997.2,N
1456160355.2,286046993.3,N
1456160375.1,286046996.0,N
1456160376.0,286046996.0,N
1456160395.8,286046996.6,N
